Shelbyville, IN

5:09 PM EDT on July 25, 2016 (GMT -0400)
Shelbyville Municipal

Weather History for KGEZ - December, 2012

Change the Weather History Date:

Wednesday, December 5, 2012

  Actual Average Record
Temperature  
Mean Temperature 40 °F 35 °F  
Max Temperature 47 °F 43 °F 66 °F (2001)
Min Temperature 33 °F 27 °F 3 °F (2007)
Degree Days  
Heating Degree Days 25 30  
Month to date heating degree days 57 146  
Since 1 July heating degree days 1195 1221  
Cooling Degree Days 0 0  
Month to date cooling degree days 0 0  
Year to date cooling degree days 1417 913  
Moisture  
Dew Point 32 °F    
Average Humidity 74    
Maximum Humidity 89    
Minimum Humidity 58    
Precipitation  
Precipitation 0.00 in 0.12 in 1.52 in (2014)
Month to date precipitation 0.63 0.55  
Year to date precipitation 26.33 40.84  
Sea Level Pressure  
Sea Level Pressure 30.31 in    
Wind  
Wind Speed 7 mph (NNE)    
Max Wind Speed 14 mph    
Max Gust Speed 17 mph    
Visibility 10 miles    
Events      
T = Trace of Precipitation, MM = Missing Value Source: NWS Daily Summary

Daily Weather History Graph

Daily Weather History Graph

Search for Another Location

Airport or City:

Trip Planner

Search our weather history database for the weather conditions in past years. The results will help you decide how hot, cold, wet, or windy it might be!

Date:

Astronomy

Dec. 05, 2012 Rise Set
Actual Time 7:48 AM EST 5:19 PM EST
Civil Twilight 7:18 AM EST 5:49 PM EST
Nautical Twilight 6:45 AM EST 6:22 PM EST
Astronomical Twilight 6:12 AM EST 6:55 PM EST
Moon No Moon Rise 12:13 PM EST (12/5)
Length of Visible Light 10h 30m
Length of Day
9h 30m
Waning Gibbous, 60% of the Moon is Illuminated
Dec 5
Waning Gibbous
Dec 6
Last Quarter
Dec 13
New
Dec 20
First Quarter
Dec 28
Full

Hourly Weather History & Observations

Time (EST) Temp. Windchill Dew Point Humidity Pressure Visibility Wind Dir Wind Speed Gust Speed Precip Events Conditions
12:53 AM 42.1 °F 38.4 °F 37.9 °F 85% 30.22 in 10.0 mi West 5.8 mph - N/A   Clear
1:53 AM 41.0 °F 39.0 °F 37.0 °F 86% 30.24 in 10.0 mi NW 3.5 mph - N/A   Clear
2:53 AM 39.9 °F - 36.0 °F 86% 30.26 in 10.0 mi Calm Calm - N/A   Clear
3:53 AM 37.0 °F 31.6 °F 34.0 °F 89% 30.27 in 10.0 mi NW 6.9 mph - N/A   Clear
4:53 AM 39.9 °F 35.1 °F 35.1 °F 83% 30.27 in 10.0 mi WNW 6.9 mph - N/A   Clear
5:53 AM 39.0 °F 34.0 °F 34.0 °F 82% 30.29 in 10.0 mi NW 6.9 mph - N/A   Clear
6:53 AM 37.0 °F 33.3 °F 33.1 °F 86% 30.31 in 10.0 mi NNW 4.6 mph - N/A   Clear
7:53 AM 37.0 °F 32.4 °F 33.1 °F 86% 30.34 in 10.0 mi North 5.8 mph - N/A   Clear
9:53 AM 41.0 °F 34.7 °F 34.0 °F 76% 30.37 in 10.0 mi North 10.4 mph - N/A   Clear
10:53 AM 42.1 °F 35.7 °F 32.0 °F 67% 30.38 in 10.0 mi NNE 11.5 mph - N/A   Clear
11:53 AM 43.0 °F 38.2 °F 33.1 °F 68% 30.37 in 10.0 mi NNE 8.1 mph - N/A   Clear
12:53 PM 45.0 °F 42.6 °F 30.9 °F 58% 30.35 in 10.0 mi North 4.6 mph - N/A   Clear
1:53 PM 45.0 °F 41.8 °F 30.0 °F 56% 30.34 in 10.0 mi Variable 5.8 mph - N/A   Clear
2:53 PM 46.0 °F 43.1 °F 32.0 °F 58% 30.32 in 10.0 mi Variable 5.8 mph - N/A   Clear
3:53 PM 46.0 °F 43.9 °F 32.0 °F 58% 30.31 in 10.0 mi North 4.6 mph - N/A   Clear
4:53 PM 44.1 °F 39.5 °F 33.1 °F 65% 30.31 in 10.0 mi ENE 8.1 mph - N/A   Clear
5:53 PM 37.9 °F 32.7 °F 30.9 °F 76% 30.32 in 10.0 mi East 6.9 mph - N/A   Clear
6:53 PM 37.9 °F 31.5 °F 30.0 °F 73% 30.32 in 10.0 mi ENE 9.2 mph - N/A   Clear
7:53 PM 36.0 °F 29.6 °F 28.9 °F 76% 30.31 in 10.0 mi ENE 8.1 mph - N/A   Clear
8:53 PM 35.1 °F 27.4 °F 28.0 °F 76% 30.31 in 10.0 mi ENE 10.4 mph - N/A   Clear
9:53 PM 34.0 °F 26.6 °F 28.0 °F 79% 30.30 in 10.0 mi East 9.2 mph - N/A   Clear
10:53 PM 33.1 °F 26.1 °F 28.0 °F 82% 30.29 in 10.0 mi East 8.1 mph - N/A   Clear
11:53 PM 33.1 °F 24.9 °F 27.0 °F 78% 30.27 in 10.0 mi East 10.4 mph - N/A   Clear